• Join FlightAware (Why Join?)
  • Login
  • US Flag 
01:45AM EST


 

Airport Tracker/Info


-or-


 

Live Flight TrackerFlight Track Log ✈ UPS1122 ✈ 04-May-2013 ✈ KSDF - KBDL

Flight Track Log - Related Links

Times and Time Zones

All times are in EDT time to prevent confusion due to time zone crossing. See the UPS1122 flight status page for this flight to view local times or setup timezone preferences in your user account.

Time Position Orientation Groundspeed Altitude Reporting Facility
EDT Latitude Longitude Course Direction KTS MPH feet Rate Location/Type
04:59AM 38.1650 -85.7240 165° South 148 170 1,400  Level FlightAware
04:59AM 38.1260 -85.7190 174° South 193 222 3,100 2,280 Climbing FlightAware
05:00AM 38.1040 -85.7150 172° South 195 224 4,300 2,880 Climbing FlightAware
05:00AM 38.0850 -85.7100 168° South 201 231 5,300 2,820 Climbing FlightAware
05:01AM 38.0700 -85.6980 148° Southeast 207 238 6,200 2,580 Climbing FlightAware
05:01AM 38.0650 -85.6890 125° Southeast 216 249 6,600 1,920 Climbing FlightAware
05:01AM 38.0600 -85.6690 108° East 244 281 7,000 1,800 Climbing FlightAware
05:01AM 38.0620 -85.6450 84° East 273 314 7,500 1,980 Climbing FlightAware
05:01AM 38.0690 -85.6230 68° East 289 333 8,000 2,400 Climbing FlightAware
05:02AM 38.0820 -85.6030 50° Northeast 296 341 8,700 3,000 Climbing FlightAware
05:02AM 38.0980 -85.5880 36° Northeast 292 336 9,500 2,160 Climbing FlightAware
05:03AM 38.1420 -85.5490 35° Northeast 310 357 10,700 1,560 Climbing FlightAware
05:03AM 38.1820 -85.5020 43° Northeast 335 386 11,500 1,740 Climbing FlightAware
05:04AM 38.2220 -85.4370 52° Northeast 350 403 12,900 2,160 Climbing FlightAware
05:05AM 38.2600 -85.3690 55° Northeast 356 410 14,400 1,920 Climbing FlightAware
05:05AM 38.2910 -85.3090 57° Northeast 372 428 15,300 1,680 Climbing FlightAware
05:06AM 38.3410 -85.2140 56° Northeast 385 443 16,800 1,680 Climbing FlightAware
05:07AM 38.3940 -85.1120 56° Northeast 394 453 18,300 1,740 Climbing FlightAware
05:08AM 38.4390 -85.0270 56° Northeast 401 461 19,600 1,800 Climbing FlightAware
05:08AM 38.4730 -84.9610 57° Northeast 406 467 20,600 1,080 Climbing FlightAware
05:09AM 38.5070 -84.8960 56° Northeast 407 468 20,900 180 Climbing FlightAware
05:10AM 38.5520 -84.8110 56° Northeast 407 468 20,900  Level FlightAware
05:10AM 38.5870 -84.7440 56° Northeast 407 468 20,900 2,940 Level FlightAware
05:11AM 38.6430 -84.6310 58° Northeast 433 498 24,600 3,120 Climbing FlightAware
05:11AM 38.6800 -84.5600 56° Northeast 433 498 24,600  Level FlightAware
05:12AM 38.7180 -84.4880 56° Northeast 433 498 24,600  Level FlightAware
05:13AM 38.7560 -84.4160 56° Northeast 433 498 24,600  Level FlightAware
05:13AM 38.7950 -84.3430 56° Northeast 433 498 24,600  Level FlightAware
05:14AM 38.8330 -84.2710 56° Northeast 433 498 24,600  Level FlightAware
05:15AM 38.8710 -84.1980 56° Northeast 433 498 24,600 5,280 Level FlightAware
05:15AM 38.9690 -83.9920 58° Northeast 460 529 32,100 6,060 Climbing FlightAware
05:16AM 39.0150 -83.9000 57° Northeast 458 527 33,200 1,620 Climbing FlightAware
05:17AM 39.0680 -83.7950 57° Northeast 456 525 34,400 1,320 Climbing FlightAware
05:18AM 39.1130 -83.7050 57° Northeast 458 527 35,100 480 Climbing FlightAware
05:18AM 39.1650 -83.6020 57° Northeast 458 527 35,100  Level FlightAware
05:19AM 39.2130 -83.5050 57° Northeast 454 522 35,100  Level FlightAware
05:20AM 39.2630 -83.4030 58° Northeast 454 522 35,100  Level FlightAware
05:20AM 39.3070 -83.3140 57° Northeast 453 521 35,100  Level FlightAware
05:21AM 39.3500 -83.2260 58° Northeast 451 519 35,100  Level FlightAware
05:22AM 39.3990 -83.1260 58° Northeast 450 518 35,100  Level FlightAware
05:22AM 39.4470 -83.0270 58° Northeast 451 519 35,100  Level FlightAware
05:23AM 39.4860 -82.9480 57° Northeast 451 519 35,100  Level FlightAware
05:24AM 39.5420 -82.8310 58° Northeast 451 519 35,100  Level FlightAware
05:25AM 39.5870 -82.7370 58° Northeast 454 522 35,100  Level FlightAware
05:25AM 39.6360 -82.6370 58° Northeast 455 524 35,100  Level FlightAware
05:26AM 39.6820 -82.5430 58° Northeast 455 524 35,100  Level FlightAware
05:27AM 39.7270 -82.4500 58° Northeast 456 525 35,100  Level FlightAware
05:27AM 39.7790 -82.3430 58° Northeast 454 522 35,100  Level FlightAware
05:28AM 39.8230 -82.2510 58° Northeast 455 524 35,100  Level FlightAware
05:29AM 39.8680 -82.1560 58° Northeast 457 526 35,100  Level FlightAware
05:29AM 39.9180 -82.0510 58° Northeast 458 527 35,100  Level FlightAware
05:30AM 39.9630 -81.9570 58° Northeast 460 529 35,100  Level FlightAware
05:31AM 40.0140 -81.8480 59° Northeast 460 529 35,100  Level FlightAware
05:32AM 40.0580 -81.7540 59° Northeast 461 531 35,100  Level FlightAware
05:32AM 40.1000 -81.6620 59° Northeast 461 531 35,100  Level FlightAware
05:33AM 40.1560 -81.5420 59° Northeast 461 531 35,100  Level FlightAware
05:34AM 40.2020 -81.4420 59° Northeast 462 532 35,100  Level FlightAware
05:34AM 40.2440 -81.3510 59° Northeast 463 533 35,100  Level FlightAware
05:35AM 40.2960 -81.2400 58° Northeast 464 534 35,100  Level FlightAware
05:36AM 40.3410 -81.1430 59° Northeast 465 535 35,100  Level FlightAware
05:36AM 40.3840 -81.0480 59° Northeast 465 535 35,100  Level FlightAware
05:37AM 40.4350 -80.9390 58° Northeast 465 535 35,100  Level FlightAware
05:38AM 40.4700 -80.8620 59° Northeast 466 536 35,100  Level FlightAware
05:38AM 40.5140 -80.7660 59° Northeast 465 535 35,100  Level FlightAware
05:39AM 40.5580 -80.6690 59° Northeast 464 534 35,100  Level FlightAware
05:40AM 40.6070 -80.5610 59° Northeast 465 535 35,100  Level FlightAware
05:40AM 40.6520 -80.4640 59° Northeast 465 535 35,100  Level FlightAware
05:41AM 40.6960 -80.3650 60° Northeast 466 536 35,100  Level FlightAware
05:42AM 40.7450 -80.2580 59° Northeast 465 535 35,100  Level FlightAware
05:43AM 40.7890 -80.1600 59° Northeast 465 535 35,100  Level FlightAware
05:43AM 40.8380 -80.0470 60° Northeast 465 535 35,100  Level FlightAware
05:44AM 40.8810 -79.9500 60° Northeast 466 536 35,100  Level FlightAware
05:45AM 40.9320 -79.8350 60° Northeast 466 536 35,100  Level FlightAware
05:45AM 40.9730 -79.7410 60° Northeast 466 536 35,100  Level FlightAware
05:46AM 41.0130 -79.6480 60° Northeast 466 536 35,100  Level FlightAware
05:47AM 41.0570 -79.5480 60° Northeast 465 535 35,100  Level FlightAware
05:47AM 41.0990 -79.4510 60° Northeast 465 535 35,100  Level FlightAware
05:48AM 41.1510 -79.3320 60° Northeast 464 534 35,100  Level FlightAware
05:49AM 41.1930 -79.2350 60° Northeast 463 533 35,100  Level FlightAware
05:50AM 41.2430 -79.1200 60° Northeast 462 532 35,100  Level FlightAware
05:50AM 41.2820 -79.0300 60° Northeast 459 528 35,100  Level FlightAware
05:51AM 41.3270 -78.9230 61° Northeast 457 526 35,100  Level FlightAware
05:52AM 41.3740 -78.8140 60° Northeast 457 526 35,100  Level FlightAware
05:52AM 41.4160 -78.7160 60° Northeast 458 527 35,100  Level FlightAware
05:53AM 41.4630 -78.6040 61° Northeast 458 527 35,100  Level FlightAware
05:54AM 41.5050 -78.5050 60° Northeast 459 528 35,100  Level FlightAware
05:54AM 41.5480 -78.4020 61° Northeast 459 528 35,100  Level FlightAware
05:55AM 41.5950 -78.2900 61° Northeast 459 528 35,100  Level FlightAware
05:56AM 41.6370 -78.1890 61° Northeast 457 526 35,100  Level FlightAware
05:57AM 41.6820 -78.0790 61° Northeast 456 525 35,100  Level FlightAware
05:57AM 41.7240 -77.9780 61° Northeast 455 524 35,100  Level FlightAware
05:58AM 41.7650 -77.8800 61° Northeast 454 522 35,100  Level FlightAware
05:59AM 41.8110 -77.7680 61° Northeast 453 521 35,100  Level FlightAware
05:59AM 41.8500 -77.6710 62° Northeast 452 520 35,100  Level FlightAware
06:00AM 41.8970 -77.5570 61° Northeast 452 520 35,100  Level FlightAware
06:01AM 41.9360 -77.4620 61° Northeast 452 520 35,100  Level FlightAware
06:01AM 41.9665 -77.3782 64° Northeast 453 521 35,100  Level FlightAware ADS-B
06:02AM 42.0040 -77.2340 71° East 456 525 35,100 -180 Level FlightAware
06:03AM 42.0310 -77.1260 71° East 454 522 34,800 -780 Descending FlightAware
06:04AM 42.0600 -77.0040 72° East 455 524 34,000 -1,080 Descending FlightAware
06:04AM 42.0860 -76.8970 72° East 455 524 33,300 -780 Descending FlightAware
06:05AM 42.1114 -76.7888 72° East 452 520 33,100 -180 Descending FlightAware ADS-B
06:05AM 42.1334 -76.6964 72° East 452 520 33,100  Level FlightAware ADS-B
06:06AM 42.1543 -76.6084 72° East 454 522 33,100  Level FlightAware ADS-B
06:07AM 42.1950 -76.4370 72° East 453 521 33,100  Level FlightAware
06:08AM 42.2200 -76.3290 73° East 453 521 33,100  Level FlightAware
06:08AM 42.2400 -76.2410 73° East 453 521 33,100  Level FlightAware
06:09AM 42.2740 -76.0950 72° East 454 522 33,100  Level FlightAware
06:10AM 42.2970 -75.9950 73° East 454 522 33,100  Level FlightAware
06:11AM 42.3300 -75.8510 73° East 456 525 33,100  Level FlightAware
06:11AM 42.3440 -75.7370 81° East 459 528 33,100  Level FlightAware
06:12AM 42.3570 -75.6300 81° East 458 527 33,100 -180 Level FlightAware
06:13AM 42.3740 -75.4940 80° East 451 519 32,900 -1,140 Descending FlightAware
06:13AM 42.3880 -75.3840 80° East 448 516 31,500 -1,440 Descending FlightAware
06:14AM 42.4030 -75.2630 80° East 436 502 30,900 -1,500 Descending FlightAware
06:15AM 42.4170 -75.1540 80° East 436 502 29,400 -1,620 Descending FlightAware
06:16AM 42.4330 -75.0310 80° East 428 493 28,500 -540 Descending FlightAware
06:16AM 42.4480 -74.9180 80° East 428 493 28,500  Level FlightAware
06:17AM 42.4600 -74.8290 80° East 428 493 28,500 -3,840 Level FlightAware
06:18AM 42.4720 -74.7160 82° East 380 437 23,700 -3,600 Descending FlightAware
06:18AM 42.4840 -74.6240 80° East 380 437 23,700  Level FlightAware
06:19AM 42.4950 -74.5440 79° East 380 437 23,700  Level FlightAware
06:20AM 42.5080 -74.4440 80° East 380 437 23,700  Level FlightAware
06:21AM 42.5180 -74.3650 80° East 380 437 23,700  Level FlightAware
06:21AM 42.5280 -74.2850 80° East 380 437 23,700 -1,260 Level FlightAware
06:25AM 42.4100 -73.7160 106° East 366 421 18,600 -1,620 Descending FlightAware
06:26AM 42.3870 -73.6150 107° East 357 411 17,000 -2,100 Descending FlightAware
06:26AM 42.3710 -73.5420 107° East 359 413 15,800 -2,100 Descending FlightAware
06:27AM 42.3480 -73.4350 106° East 376 433 14,100 -1,140 Descending FlightAware
06:28AM 42.3310 -73.3580 107° East 376 433 14,100  Level FlightAware
06:28AM 42.3150 -73.2810 106° East 376 433 14,100 -2,400 Level FlightAware
06:29AM 42.2225 -73.2419 106° East 319 367 10,700 -3,480 Descending Boston Center
06:29AM 42.1892 -73.2247 159° South 312 359 10,300 -1,020 Descending Boston Center
06:30AM 42.1519 -73.2047 158° South 306 352 9,700 -1,200 Descending Boston Center
06:30AM 42.1144 -73.1900 164° South 293 337 9,100 -1,500 Descending Boston Center
06:31AM 42.0689 -73.1672 160° South 294 338 8,200 -1,380 Descending Boston Center
06:31AM 42.0397 -73.1528 160° South 285 328 7,700 -1,320 Descending Boston Center
06:32AM 42.0108 -73.1219 142° Southeast 283 326 6,900 -1,500 Descending Boston Center
06:32AM 41.9775 -73.0936 148° Southeast 274 315 6,200 -1,200 Descending Boston Center
06:33AM 41.9464 -73.0514 135° Southeast 271 312 5,700 -840 Descending Boston Center
06:33AM 41.9236 -73.0317 147° Southeast 261 300 5,400 -600 Descending Boston Center
06:34AM 41.8989 -73.0006 137° Southeast 259 298 5,100 -720 Descending Boston Center
06:35AM 41.8617 -72.9306 126° Southeast 218 251 4,300 -840 Descending Boston Center
06:35AM 41.8597 -72.8972 94° East 209 241 4,000 -900 Descending Boston Center
06:36AM 41.8536 -72.8553 101° East 203 234 3,400 -1,140 Descending Boston Center
06:36AM 41.8517 -72.8275 95° East 196 226 2,900 -1,020 Descending Boston Center
06:37AM 41.8581 -72.7914 77° East 174 200 2,400 -1,020 Descending Boston Center
06:37AM 41.8725 -72.7747 41° Northeast 160 184 1,900 -900 Descending Boston Center
06:38AM 41.8894 -72.7553 41° Northeast 136 157 1,500 -720 Descending Boston Center
06:38AM 41.8997 -72.7414 45° Northeast 135 155 1,200 -600 Descending Boston Center
06:39AM 41.9125 -72.7247 44° Northeast 130 150 900 -720 Descending Boston Center
06:39AM 41.9228 -72.7108 45° Northeast 122 140 500 10,080 Descending Boston Center
06:40AM 41.9375 -72.6911 45° Northeast 120 138 11,000 6,720 Climbing Boston Center
06:41AM 41.9542 -72.6578 56° Northeast 120 138 11,000  Level Boston Center
06:43AM 41.9333 -72.6833 135° Southeast  Level FlightAware Approximate
06:50AM 41.9392 -72.6834 135° Southeast  Level Estimated
06:51AM 41.9333 -72.6833 135° Southeast  Level FlightAware Approximate
06:52AM 41.9392 -72.6834 135° Southeast  Level Estimated